JHL4MD LYTV-LOXZ

Flight info

Callsign JHL4MD
Flight time 1h 14m
Altitude 36000
Route NIK DCT NEPSI DCT LURID DCT KOPRY
Aircraft A20N/M-SDE2E3FGHIRWXY/LB1

Departure

Time 2026-05-09 17:04
Airport Tivat Airport (LYTV)

Arrival

Time 2026-05-09 18:18
Airport Hinterstoisser Air Base (LOXZ)
Time Latitude Longitude Altitude Speed Heading
2026-05-09 16:13 42.41071 18.71846 21 ft 0 kts 168°
2026-05-09 16:55 42.41063 18.71849 21 ft 3 kts 167°
2026-05-09 16:55 42.41055 18.71851 21 ft 0 kts 168°
2026-05-09 16:58 42.41040 18.71856 23 ft 4 kts 167°
2026-05-09 16:58 42.41010 18.71858 21 ft 0 kts 195°
2026-05-09 16:59 42.41008 18.71857 21 ft 0 kts 198°
2026-05-09 17:01 42.41006 18.71856 21 ft 3 kts 199°
2026-05-09 17:02 42.40944 18.71805 20 ft 18 kts 193°
2026-05-09 17:02 42.40788 18.71940 17 ft 36 kts 137°
2026-05-09 17:02 42.40566 18.72197 17 ft 44 kts 140°
2026-05-09 17:02 42.40330 18.72465 23 ft 44 kts 139°
2026-05-09 17:03 42.40091 18.72743 21 ft 46 kts 139°
2026-05-09 17:04 42.41213 18.67991 2435 ft 207 kts 220°
2026-05-09 17:05 42.40014 18.66694 2907 ft 232 kts 219°
2026-05-09 17:05 42.38737 18.65315 3852 ft 235 kts 218°
2026-05-09 17:05 42.37449 18.63888 4788 ft 242 kts 218°
2026-05-09 17:05 42.36157 18.62401 5760 ft 246 kts 219°
2026-05-09 17:06 42.34863 18.60868 6726 ft 250 kts 219°
2026-05-09 17:06 42.33525 18.59348 7663 ft 252 kts 206°
2026-05-09 17:06 42.31875 18.58684 8589 ft 250 kts 174°
2026-05-09 17:06 42.30138 18.58860 9575 ft 252 kts 171°
2026-05-09 17:07 42.28380 18.59114 10512 ft 256 kts 172°
2026-05-09 17:07 42.27197 18.59305 11009 ft 264 kts 165°
2026-05-09 17:07 42.25104 18.61014 11961 ft 270 kts 124°
2026-05-09 17:07 42.24357 18.63337 12720 ft 276 kts 95°
2026-05-09 17:08 42.24539 18.65921 13469 ft 282 kts 71°
2026-05-09 17:08 42.25866 18.71017 14934 ft 293 kts 70°
2026-05-09 17:08 42.26552 18.73633 15659 ft 298 kts 70°
2026-05-09 17:09 42.27241 18.76300 16387 ft 304 kts 68°
2026-05-09 17:09 42.28360 18.78794 16750 ft 321 kts 41°
2026-05-09 17:09 42.30250 18.80457 17184 ft 332 kts 15°
2026-05-09 17:09 42.32483 18.81202 17991 ft 333 kts
2026-05-09 17:10 42.34773 18.81744 18699 ft 336 kts
2026-05-09 17:10 42.37094 18.82285 19427 ft 340 kts
2026-05-09 17:10 42.39457 18.82853 19848 ft 354 kts
2026-05-09 17:10 42.41951 18.83463 19994 ft 375 kts
2026-05-09 17:11 42.44583 18.84115 20119 ft 394 kts
2026-05-09 17:11 42.47337 18.84803 20288 ft 410 kts
2026-05-09 17:11 42.50193 18.85519 20501 ft 424 kts
2026-05-09 17:11 42.53103 18.86250 21085 ft 426 kts
2026-05-09 17:12 42.56033 18.86986 21627 ft 430 kts
2026-05-09 17:12 42.58988 18.87727 22182 ft 434 kts
2026-05-09 17:12 42.61969 18.88471 22749 ft 437 kts
2026-05-09 17:12 42.64970 18.89221 23330 ft 440 kts
2026-05-09 17:13 42.67995 18.89981 23846 ft 443 kts
2026-05-09 17:13 42.71038 18.90749 24297 ft 446 kts
2026-05-09 17:13 42.74100 18.91525 24723 ft 449 kts
2026-05-09 17:13 42.77203 18.91933 25126 ft 448 kts 356°
2026-05-09 17:14 42.80308 18.91605 25511 ft 448 kts 348°
2026-05-09 17:14 42.83368 18.90803 25864 ft 449 kts 345°
2026-05-09 17:14 42.86402 18.89798 26291 ft 448 kts 343°
2026-05-09 17:14 42.89421 18.88768 26803 ft 446 kts 343°
2026-05-09 17:15 42.92439 18.87770 27246 ft 446 kts 344°
2026-05-09 17:15 42.95455 18.86807 27730 ft 445 kts 345°
2026-05-09 17:15 42.98473 18.85865 28216 ft 444 kts 345°
2026-05-09 17:15 43.01521 18.84916 28708 ft 443 kts 344°
2026-05-09 17:16 43.04521 18.83975 29182 ft 442 kts 344°
2026-05-09 17:17 43.25106 18.77454 32984 ft 420 kts 343°
2026-05-09 17:18 43.27946 18.76537 33487 ft 418 kts 340°
2026-05-09 17:18 43.30665 18.75205 33935 ft 413 kts 331°
2026-05-09 17:18 43.33230 18.73466 34336 ft 410 kts 328°
2026-05-09 17:18 43.35736 18.71611 34753 ft 408 kts 327°
2026-05-09 17:19 43.38228 18.69762 35181 ft 406 kts 328°
2026-05-09 17:19 43.40718 18.67945 35568 ft 405 kts 328°
2026-05-09 17:19 43.43218 18.66149 35943 ft 403 kts 328°
2026-05-09 17:19 43.45704 18.64372 36093 ft 406 kts 328°
2026-05-09 17:20 43.50716 18.60767 36060 ft 406 kts 328°
2026-05-09 17:20 43.55723 18.57160 36059 ft 406 kts 328°
2026-05-09 17:21 43.60726 18.53555 36065 ft 405 kts 328°
2026-05-09 17:21 43.65718 18.49953 36067 ft 405 kts 328°
2026-05-09 17:22 43.70701 18.46343 36065 ft 404 kts 328°
2026-05-09 17:22 43.75677 18.42727 36059 ft 404 kts 328°
2026-05-09 17:23 43.80649 18.39116 36066 ft 403 kts 328°
2026-05-09 17:23 43.85616 18.35505 36073 ft 403 kts 328°
2026-05-09 17:25 43.99627 18.25262 36075 ft 402 kts 327°
2026-05-09 17:25 44.04572 18.21639 36067 ft 402 kts 327°
2026-05-09 17:26 44.09506 18.18008 36071 ft 401 kts 327°
2026-05-09 17:26 44.14440 18.14372 36073 ft 401 kts 327°
2026-05-09 17:27 44.19370 18.10741 36060 ft 400 kts 327°
2026-05-09 17:27 44.24294 18.07105 36060 ft 400 kts 327°
2026-05-09 17:28 44.29205 18.03462 36059 ft 400 kts 327°
2026-05-09 17:28 44.34117 17.99816 36064 ft 400 kts 327°
2026-05-09 17:29 44.39023 17.96175 36062 ft 399 kts 327°
2026-05-09 17:29 44.43923 17.92529 36055 ft 398 kts 326°
2026-05-09 17:30 44.48802 17.88882 36059 ft 398 kts 326°
2026-05-09 17:30 44.53688 17.85230 36048 ft 398 kts 326°
2026-05-09 17:31 44.58571 17.81578 36049 ft 398 kts 326°
2026-05-09 17:32 44.70756 17.72415 36042 ft 397 kts 326°
2026-05-09 17:33 44.75628 17.68747 36035 ft 397 kts 326°
2026-05-09 17:33 44.80490 17.65071 36033 ft 397 kts 326°
2026-05-09 17:34 44.85346 17.61390 36030 ft 396 kts 326°
2026-05-09 17:35 45.02290 17.48512 36035 ft 395 kts 325°
2026-05-09 17:36 45.07117 17.44829 36039 ft 394 kts 325°
2026-05-09 17:36 45.11944 17.41142 36044 ft 394 kts 325°
2026-05-09 17:37 45.14473 17.39543 36050 ft 405 kts 335°
2026-05-09 17:37 45.17204 17.38362 36050 ft 416 kts 338°
2026-05-09 17:37 45.22804 17.36302 36055 ft 415 kts 338°
2026-05-09 17:38 45.28367 17.34181 36058 ft 414 kts 338°
2026-05-09 17:39 45.36689 17.30921 36057 ft 413 kts 338°
2026-05-09 17:39 45.42235 17.28761 36063 ft 413 kts 338°
2026-05-09 17:40 45.47764 17.26601 36075 ft 411 kts 337°
2026-05-09 17:40 45.53306 17.24422 36079 ft 412 kts 337°
2026-05-09 17:41 45.58829 17.22252 36085 ft 411 kts 337°
2026-05-09 17:41 45.64349 17.20082 36090 ft 412 kts 337°
2026-05-09 17:42 45.69824 17.17922 36074 ft 399 kts 335°
2026-05-09 17:42 45.75136 17.15806 36079 ft 397 kts 336°
2026-05-09 17:43 45.80453 17.13712 36076 ft 396 kts 335°
2026-05-09 17:43 45.85776 17.11592 36086 ft 396 kts 336°
2026-05-09 17:44 45.91105 17.09469 36089 ft 397 kts 336°
2026-05-09 17:44 45.96413 17.07357 36099 ft 400 kts 336°
2026-05-09 17:45 46.01767 17.05219 36111 ft 401 kts 336°
2026-05-09 17:45 46.07134 17.03069 36128 ft 401 kts 336°
2026-05-09 17:46 46.12511 17.00910 36131 ft 401 kts 336°
2026-05-09 17:46 46.17903 16.98742 36141 ft 401 kts 337°
2026-05-09 17:46 46.20590 16.97663 35984 ft 400 kts 336°
2026-05-09 17:47 46.23114 16.96157 35665 ft 389 kts 320°
2026-05-09 17:47 46.25254 16.93850 35385 ft 380 kts 311°
2026-05-09 17:47 46.27125 16.91183 35126 ft 377 kts 308°
2026-05-09 17:47 46.28883 16.88375 34924 ft 376 kts 307°
2026-05-09 17:48 46.30604 16.85529 34778 ft 376 kts 306°
2026-05-09 17:48 46.32321 16.82680 34655 ft 376 kts 306°
2026-05-09 17:48 46.34041 16.79840 34548 ft 372 kts 307°
2026-05-09 17:48 46.35741 16.77045 34426 ft 369 kts 307°
2026-05-09 17:49 46.37439 16.74252 34305 ft 369 kts 306°
2026-05-09 17:49 46.40830 16.68654 34124 ft 367 kts 306°
2026-05-09 17:49 46.42496 16.65902 33330 ft 363 kts 307°
2026-05-09 17:50 46.44164 16.63135 32309 ft 366 kts 307°
2026-05-09 17:50 46.47538 16.57532 30415 ft 371 kts 308°
2026-05-09 17:50 46.49239 16.54708 29376 ft 372 kts 308°
2026-05-09 17:51 46.50947 16.51872 28380 ft 374 kts 308°
2026-05-09 17:51 46.52663 16.49023 27484 ft 376 kts 308°
2026-05-09 17:51 46.54392 16.46148 26689 ft 380 kts 308°
2026-05-09 17:51 46.56135 16.43242 25980 ft 383 kts 308°
2026-05-09 17:52 46.57884 16.40312 25293 ft 384 kts 308°
2026-05-09 17:52 46.59581 16.37303 24641 ft 385 kts 306°
2026-05-09 17:52 46.61254 16.34252 24004 ft 386 kts 307°
2026-05-09 17:52 46.62933 16.31198 23303 ft 387 kts 307°
2026-05-09 17:53 46.64621 16.28149 22505 ft 385 kts 307°
2026-05-09 17:53 46.66304 16.25125 21500 ft 385 kts 307°
2026-05-09 17:53 46.67983 16.22113 20784 ft 378 kts 307°
2026-05-09 17:53 46.69604 16.19202 20376 ft 363 kts 307°
2026-05-09 17:54 46.71145 16.16430 19959 ft 351 kts 307°
2026-05-09 17:54 46.72659 16.13699 19583 ft 343 kts 307°
2026-05-09 17:54 46.74145 16.11008 19400 ft 336 kts 307°
2026-05-09 17:54 46.75573 16.08425 19292 ft 318 kts 307°
2026-05-09 17:55 46.76927 16.05979 19196 ft 302 kts 307°
2026-05-09 17:55 46.78216 16.03650 19062 ft 289 kts 307°
2026-05-09 17:55 46.79458 16.01401 18910 ft 281 kts 307°
2026-05-09 17:55 46.80673 15.99191 18826 ft 278 kts 307°
2026-05-09 17:56 46.81874 15.97005 18763 ft 275 kts 307°
2026-05-09 17:56 46.83071 15.94828 18708 ft 275 kts 307°
2026-05-09 17:56 46.84267 15.92651 18663 ft 275 kts 307°
2026-05-09 17:57 46.86669 15.88278 18339 ft 273 kts 307°
2026-05-09 17:57 46.87848 15.86134 17937 ft 269 kts 307°
2026-05-09 17:57 46.89012 15.84014 17540 ft 266 kts 307°
2026-05-09 17:57 46.90166 15.81909 17148 ft 265 kts 307°
2026-05-09 17:58 46.91317 15.79805 16765 ft 264 kts 307°
2026-05-09 17:58 46.92458 15.77716 16379 ft 263 kts 307°
2026-05-09 17:58 46.93612 15.75601 15996 ft 269 kts 307°
2026-05-09 17:58 46.94779 15.73463 15623 ft 269 kts 307°
2026-05-09 17:59 46.95925 15.71368 15256 ft 256 kts 307°
2026-05-09 17:59 46.97009 15.69388 14891 ft 243 kts 306°
2026-05-09 17:59 46.98039 15.67501 14529 ft 231 kts 306°
2026-05-09 17:59 46.99023 15.65693 14182 ft 223 kts 306°
2026-05-09 18:00 46.99982 15.63927 13802 ft 221 kts 306°
2026-05-09 18:00 47.00941 15.62160 13409 ft 222 kts 306°
2026-05-09 18:00 47.01896 15.60402 13027 ft 219 kts 306°
2026-05-09 18:00 47.02845 15.58656 12624 ft 219 kts 306°
2026-05-09 18:01 47.03795 15.56906 12248 ft 219 kts 306°
2026-05-09 18:01 47.04745 15.55158 11863 ft 219 kts 306°
2026-05-09 18:01 47.05691 15.53413 11494 ft 218 kts 306°
2026-05-09 18:01 47.06630 15.51669 11120 ft 217 kts 306°
2026-05-09 18:02 47.07569 15.49934 10749 ft 216 kts 306°
2026-05-09 18:02 47.08497 15.48215 10391 ft 213 kts 305°
2026-05-09 18:02 47.09381 15.46577 10140 ft 198 kts 305°
2026-05-09 18:02 47.10202 15.45053 9984 ft 185 kts 305°
2026-05-09 18:03 47.10993 15.43581 9837 ft 182 kts 306°
2026-05-09 18:03 47.11789 15.42111 9677 ft 181 kts 306°
2026-05-09 18:03 47.12571 15.40669 9517 ft 180 kts 306°
2026-05-09 18:03 47.13346 15.39235 9363 ft 179 kts 306°
2026-05-09 18:04 47.14115 15.37802 9229 ft 179 kts 306°
2026-05-09 18:04 47.14886 15.36380 9087 ft 178 kts 306°
2026-05-09 18:04 47.15653 15.34959 8947 ft 178 kts 306°
2026-05-09 18:04 47.16418 15.33539 8851 ft 177 kts 306°
2026-05-09 18:05 47.17185 15.32112 8725 ft 178 kts 306°
2026-05-09 18:05 47.17953 15.30686 8554 ft 178 kts 306°
2026-05-09 18:05 47.18724 15.29256 8412 ft 180 kts 306°
2026-05-09 18:05 47.19518 15.27777 8244 ft 185 kts 307°
2026-05-09 18:06 47.20311 15.26302 8167 ft 187 kts 307°
2026-05-09 18:06 47.21117 15.24802 8129 ft 187 kts 307°
2026-05-09 18:06 47.21923 15.23299 8112 ft 189 kts 306°
2026-05-09 18:06 47.22735 15.21776 8103 ft 189 kts 307°
2026-05-09 18:07 47.23550 15.20261 8099 ft 189 kts 307°
2026-05-09 18:07 47.24557 15.19056 8101 ft 191 kts 335°
2026-05-09 18:07 47.25767 15.18251 8089 ft 191 kts 333°
2026-05-09 18:07 47.26977 15.17425 8083 ft 192 kts 333°
2026-05-09 18:08 47.28190 15.16602 8082 ft 192 kts 333°
2026-05-09 18:08 47.29405 15.15786 8078 ft 192 kts 334°
2026-05-09 18:08 47.30504 15.14735 8082 ft 189 kts 303°
2026-05-09 18:08 47.30891 15.12940 8075 ft 187 kts 261°
2026-05-09 18:09 47.30492 15.11169 8072 ft 180 kts 248°
2026-05-09 18:09 47.30019 15.09465 8067 ft 180 kts 249°
2026-05-09 18:09 47.29581 15.07705 7814 ft 184 kts 249°
2026-05-09 18:09 47.29081 15.05940 7408 ft 189 kts 245°
2026-05-09 18:10 47.28533 15.04175 7093 ft 190 kts 245°
2026-05-09 18:10 47.28348 15.03576 6988 ft 190 kts 246°
2026-05-09 18:10 47.27625 15.01226 6550 ft 191 kts 246°
2026-05-09 18:10 47.27077 14.99440 6212 ft 192 kts 246°
2026-05-09 18:11 47.26533 14.97672 5902 ft 185 kts 246°
2026-05-09 18:11 47.26015 14.95985 5617 ft 176 kts 246°
2026-05-09 18:11 47.25522 14.94381 5352 ft 168 kts 246°
2026-05-09 18:11 47.25051 14.92849 5098 ft 163 kts 246°
2026-05-09 18:12 47.24581 14.91321 4811 ft 164 kts 246°
2026-05-09 18:12 47.24113 14.89796 4529 ft 163 kts 246°
2026-05-09 18:12 47.23646 14.88276 4262 ft 163 kts 246°
2026-05-09 18:12 47.23182 14.86768 4076 ft 161 kts 246°
2026-05-09 18:13 47.22722 14.85273 3976 ft 160 kts 246°
2026-05-09 18:13 47.22072 14.83967 3933 ft 160 kts 222°
2026-05-09 18:13 47.21214 14.82903 3885 ft 161 kts 220°
2026-05-09 18:13 47.20345 14.81854 3874 ft 162 kts 220°
2026-05-09 18:14 47.19474 14.80803 3869 ft 162 kts 220°
2026-05-09 18:14 47.18614 14.79736 3866 ft 161 kts 232°
2026-05-09 18:14 47.18206 14.78229 3866 ft 162 kts 261°
2026-05-09 18:14 47.18023 14.76606 3868 ft 161 kts 261°
2026-05-09 18:15 47.17844 14.74984 3870 ft 161 kts 261°
2026-05-09 18:15 47.17664 14.73363 3869 ft 161 kts 261°
2026-05-09 18:15 47.17484 14.71746 3872 ft 161 kts 261°
2026-05-09 18:15 47.17306 14.70128 3870 ft 161 kts 261°
2026-05-09 18:16 47.17128 14.68519 3869 ft 158 kts 261°
2026-05-09 18:16 47.17170 14.66951 3870 ft 155 kts 297°
2026-05-09 18:16 47.17929 14.65877 3870 ft 156 kts 343°
2026-05-09 18:16 47.18989 14.65925 3845 ft 157 kts 28°
2026-05-09 18:17 47.19664 14.67130 3716 ft 162 kts 77°
2026-05-09 18:17 47.19756 14.68823 3177 ft 168 kts 90°
2026-05-09 18:17 47.19818 14.70514 2740 ft 164 kts 81°
2026-05-09 18:17 47.20003 14.72132 2390 ft 154 kts 81°
2026-05-09 18:18 47.20159 14.73526 2251 ft 90 kts 81°
2026-05-09 18:18 47.20237 14.74210 2236 ft 66 kts 80°
2026-05-09 18:18 47.20311 14.74866 2224 ft 65 kts 81°
2026-05-09 18:18 47.20374 14.75388 2215 ft 22 kts 79°
2026-05-09 18:19 47.20398 14.75568 2210 ft 15 kts 81°
2026-05-09 18:19 47.20283 14.75737 2209 ft 7 kts 175°
2026-05-09 18:19 47.20242 14.75692 2209 ft 9 kts 249°
2026-05-09 18:20 47.20201 14.75626 2210 ft 11 kts 185°
2026-05-09 18:20 47.20130 14.75641 2208 ft 7 kts 170°
2026-05-09 18:20 47.20089 14.75599 2211 ft 9 kts 252°
2026-05-09 18:20 47.20087 14.75585 2212 ft 0 kts 256°